| time (UTC) | temp C | wind direction | speed KPH | gust KPH | rain 1hr cm | rain 24hr cm | rain mn cm | humidity % | barometer mb |
| 20260904122019 | 17 | 19 | 3.2 | 12.9 | 0.00 | 0.28 | 0.28 | 73 | 1010.3 |
| 20260904121532 | 17 | 360 | 3.2 | 14.5 | 0.00 | 0.28 | 0.28 | 73 | 1010.4 |
| 20260904121016 | 17 | 53 | 3.2 | 14.5 | 0.00 | 0.28 | 0.28 | 73 | 1010.4 |
| 20260904120517 | 17 | 355 | 3.2 | 8.0 | 0.00 | 0.28 | 0.28 | 73 | 1010.4 |
| 20260904120045 | 17 | 350 | 3.2 | 9.7 | 0.00 | 0.28 | 0.28 | 73 | 1010.4 |
| 20260904115521 | 17 | 33 | 3.2 | 12.9 | 0.00 | 0.28 | 0.28 | 72 | 1010.6 |
| 20260904115016 | 17 | 355 | 3.2 | 16.1 | 0.00 | 0.28 | 0.28 | 72 | 1010.5 |
| 20260904114534 | 18 | 17 | 3.2 | 16.1 | 0.00 | 0.28 | 0.28 | 72 | 1010.6 |
| 20260904114016 | 18 | 59 | 4.8 | 16.1 | 0.00 | 0.28 | 0.28 | 72 | 1010.6 |
| 20260904113519 | 18 | 329 | 6.4 | 16.1 | 0.00 | 0.28 | 0.28 | 72 | 1010.7 |
| 20260904113033 | 18 | 80 | 6.4 | 16.1 | 0.00 | 0.28 | 0.28 | 71 | 1010.9 |
| 20260904112519 | 18 | 348 | 3.2 | 19.3 | 0.00 | 0.28 | 0.28 | 71 | 1010.7 |
| 20260904112016 | 18 | 355 | 3.2 | 19.3 | 0.00 | 0.28 | 0.28 | 71 | 1010.9 |
| 20260904111541 | 18 | 355 | 3.2 | 14.5 | 0.00 | 0.28 | 0.28 | 71 | 1010.9 |
| 20260904111015 | 18 | 355 | 3.2 | 14.5 | 0.00 | 0.28 | 0.28 | 71 | 1010.8 |
| 20260904110515 | 18 | 355 | 1.6 | 19.3 | 0.00 | 0.28 | 0.28 | 71 | 1010.8 |
| 20260904110036 | 18 | 351 | 3.2 | 19.3 | 0.00 | 0.28 | 0.28 | 71 | 1010.6 |
| 20260904105519 | 18 | 27 | 4.8 | 19.3 | 0.00 | 0.28 | 0.28 | 71 | 1010.6 |
| 20260904105019 | 18 | 17 | 4.8 | 17.7 | 0.00 | 0.28 | 0.28 | 71 | 1010.8 |
| 20260904104725 | 18 | 327 | 3.2 | 17.7 | 0.00 | 0.28 | 0.28 | 71 | 1010.7 |
| 20260904102019 | 18 | 13 | 4.8 | 14.5 | 0.00 | 0.28 | 0.28 | 71 | 1010.0 |
| 20260904101537 | 18 | 348 | 4.8 | 14.5 | 0.00 | 0.28 | 0.28 | 71 | 1010.9 |
| 20260904101015 | 18 | 355 | 4.8 | 14.5 | 0.00 | 0.28 | 0.28 | 72 | 1011.1 |
| 20260904100518 | 18 | 0 | 3.2 | 12.9 | 0.00 | 0.28 | 0.28 | 72 | 1010.8 |
| 20260904100035 | 18 | 349 | 3.2 | 12.9 | 0.00 | 0.28 | 0.28 | 73 | 1010.9 |
| 20260904095517 | 18 | 329 | 3.2 | 12.9 | 0.00 | 0.28 | 0.28 | 73 | 1010.9 |
| 20260904095020 | 18 | 0 | 4.8 | 16.1 | 0.00 | 0.28 | 0.28 | 74 | 1010.8 |
| 20260904094536 | 18 | 335 | 3.2 | 16.1 | 0.00 | 0.28 | 0.28 | 74 | 1010.6 |
| 20260904094018 | 18 | 20 | 6.4 | 16.1 | 0.00 | 0.28 | 0.28 | 74 | 1010.3 |
| 20260904093516 | 18 | 17 | 6.4 | 14.5 | 0.00 | 0.28 | 0.28 | 75 | 1010.3 |
| 20260904093033 | 18 | 360 | 1.6 | 14.5 | 0.00 | 0.28 | 0.28 | 75 | 1010.4 |
| 20260904092520 | 18 | 13 | 3.2 | 12.9 | 0.00 | 0.28 | 0.28 | 76 | 1010.2 |
| 20260904092018 | 18 | 15 | 3.2 | 8.0 | 0.00 | 0.28 | 0.28 | 76 | 1010.1 |
| 20260904091534 | 18 | 17 | 3.2 | 8.0 | 0.00 | 0.28 | 0.28 | 76 | 1010.1 |
| 20260904091017 | 18 | 22 | 3.2 | 8.0 | 0.00 | 0.28 | 0.28 | 76 | 1010.3 |
| 20260904090515 | 18 | 17 | 1.6 | 8.0 | 0.00 | 0.28 | 0.28 | 76 | 1010.2 |
| 20260904090034 | 18 | 17 | 3.2 | 8.0 | 0.00 | 0.28 | 0.28 | 76 | 1010.2 |
| 20260904085515 | 18 | 0 | 1.6 | 9.7 | 0.00 | 0.28 | 0.28 | 76 | 1010.2 |
| 20260904085016 | 18 | 17 | 3.2 | 11.3 | 0.00 | 0.28 | 0.28 | 76 | 1010.2 |
| 20260904084535 | 18 | 22 | 1.6 | 12.9 | 0.00 | 0.28 | 0.28 | 76 | 1010.2 |
| 20260904084019 | 18 | 0 | 1.6 | 12.9 | 0.00 | 0.28 | 0.28 | 76 | 1010.4 |
| 20260904083631 | 18 | 18 | 1.6 | 12.9 | 0.00 | 0.28 | 0.28 | 76 | 1010.3 |
| 20260904065524 | 20 | 348 | 3.2 | 8.0 | 0.00 | 0.25 | 0.25 | 72 | 1010.7 |
| 20260904065020 | 20 | 346 | 3.2 | 9.7 | 0.00 | 0.25 | 0.25 | 72 | 1010.6 |
| 20260904064537 | 20 | 350 | 1.6 | 9.7 | 0.00 | 0.25 | 0.25 | 72 | 1010.8 |
| 20260904064016 | 20 | 0 | 1.6 | 9.7 | 0.00 | 0.25 | 0.25 | 71 | 1010.9 |
| 20260904063516 | 20 | 13 | 3.2 | 14.5 | 0.00 | 0.25 | 0.25 | 70 | 1011.0 |
| 20260904063032 | 20 | 355 | 3.2 | 14.5 | 0.00 | 0.25 | 0.25 | 69 | 1010.9 |
| 20260904062521 | 21 | 9 | 4.8 | 14.5 | 0.00 | 0.25 | 0.25 | 69 | 1011.0 |
| 20260904062018 | 21 | 26 | 4.8 | 16.1 | 0.00 | 0.25 | 0.25 | 69 | 1010.9 |
| 20260904061539 | 21 | 43 | 3.2 | 16.1 | 0.00 | 0.25 | 0.25 | 69 | 1011.0 |
| 20260904061018 | 21 | 35 | 3.2 | 12.9 | 0.00 | 0.25 | 0.25 | 69 | 1011.0 |
| 20260904060515 | 21 | 322 | 3.2 | 12.9 | 0.00 | 0.25 | 0.25 | 69 | 1011.1 |
| 20260904060035 | 20 | 35 | 1.6 | 12.9 | 0.00 | 0.25 | 0.25 | 69 | 1011.2 |
| 20260904055518 | 20 | 29 | 3.2 | 12.9 | 0.00 | 0.25 | 0.25 | 69 | 1011.2 |
| 20260904055020 | 20 | 360 | 3.2 | 12.9 | 0.00 | 0.25 | 0.25 | 69 | 1011.3 |
| 20260904054535 | 20 | 96 | 4.8 | 12.9 | 0.00 | 0.25 | 0.25 | 69 | 1011.3 |
| 20260904054018 | 20 | 60 | 4.8 | 12.9 | 0.00 | 0.25 | 0.25 | 71 | 1011.2 |
| 20260904053519 | 20 | 10 | 3.2 | 12.9 | 0.00 | 0.25 | 0.25 | 71 | 1011.4 |
| 20260904053036 | 20 | 28 | 4.8 | 12.9 | 0.00 | 0.25 | 0.25 | 72 | 1011.5 |
| 20260904052517 | 19 | 346 | 3.2 | 14.5 | 0.00 | 0.25 | 0.25 | 72 | 1011.4 |
| 20260904052021 | 19 | 80 | 4.8 | 14.5 | 0.00 | 0.25 | 0.25 | 72 | 1011.6 |
| 20260904051533 | 19 | 0 | 1.6 | 12.9 | 0.00 | 0.25 | 0.25 | 72 | 1011.8 |
| 20260904051017 | 19 | 9 | 3.2 | 12.9 | 0.00 | 0.25 | 0.25 | 73 | 1011.9 |
| 20260904050517 | 18 | 355 | 3.2 | 9.7 | 0.00 | 0.25 | 0.25 | 73 | 1012.0 |
| 20260904050036 | 18 | 351 | 4.8 | 9.7 | 0.00 | 0.25 | 0.25 | 73 | 1012.1 |
| 20260904045518 | 18 | 342 | 3.2 | 9.7 | 0.00 | 0.25 | 0.25 | 73 | 1012.0 |
| 20260904045021 | 18 | 346 | 3.2 | 9.7 | 0.00 | 0.25 | 0.25 | 73 | 1012.1 |
| 20260904044532 | 18 | 334 | 3.2 | 8.0 | 0.00 | 0.25 | 0.25 | 73 | 1012.2 |
| 20260904044018 | 18 | 360 | 1.6 | 6.4 | 0.00 | 0.25 | 0.25 | 72 | 1012.4 |
| 20260904043515 | 18 | 0 | 0.0 | 9.7 | 0.00 | 0.25 | 0.25 | 72 | 1012.4 |
| 20260904043033 | 18 | 13 | 3.2 | 12.9 | 0.00 | 0.25 | 0.25 | 72 | 1012.3 |
| 20260904042518 | 18 | 50 | 3.2 | 12.9 | 0.00 | 0.25 | 0.25 | 72 | 1012.4 |
| 20260904042016 | 18 | 340 | 3.2 | 12.9 | 0.00 | 0.25 | 0.25 | 73 | 1012.2 |
| 20260904041536 | 18 | 338 | 3.2 | 12.9 | 0.00 | 0.25 | 0.25 | 72 | 1012.5 |
| 20260904041023 | 18 | 0 | 3.2 | 9.7 | 0.00 | 0.25 | 0.25 | 73 | 1012.7 |
| 20260904040519 | 18 | 344 | 1.6 | 8.0 | 0.00 | 0.25 | 0.25 | 73 | 1012.7 |
| 20260904040031 | 18 | 342 | 3.2 | 9.7 | 0.00 | 0.25 | 0.25 | 73 | 1012.9 |
| 20260904035519 | 18 | 14 | 3.2 | 16.1 | 0.00 | 0.25 | 0.25 | 73 | 1013.0 |
| 20260904035018 | 18 | 19 | 4.8 | 16.1 | 0.00 | 0.25 | 0.25 | 73 | 1013.2 |
| 20260904034535 | 18 | 355 | 3.2 | 14.5 | 0.00 | 0.25 | 0.25 | 74 | 1013.2 |
| 20260904034018 | 18 | 360 | 3.2 | 14.5 | 0.00 | 0.25 | 0.25 | 75 | 1013.3 |
| 20260904033516 | 18 | 26 | 4.8 | 14.5 | 0.00 | 0.25 | 0.25 | 76 | 1013.7 |
| 20260904033127 | 17 | 60 | 6.4 | 14.5 | 0.00 | 0.25 | 0.25 | 77 | 1013.5 |
| 20260904032517 | 17 | 72 | 6.4 | 14.5 | 0.08 | 0.25 | 0.25 | 78 | 1013.7 |
| 20260904032019 | 17 | 96 | 4.8 | 16.1 | 0.10 | 0.25 | 0.25 | 80 | 1013.8 |
| 20260904031534 | 17 | 59 | 4.8 | 16.1 | 0.10 | 0.25 | 0.25 | 80 | 1014.0 |
| 20260904031020 | 17 | 11 | 4.8 | 14.5 | 0.10 | 0.25 | 0.25 | 82 | 1014.2 |
| 20260904030520 | 16 | 351 | 4.8 | 14.5 | 0.10 | 0.25 | 0.25 | 83 | 1014.1 |
| 20260904030033 | 16 | 142 | 4.8 | 14.5 | 0.10 | 0.25 | 0.25 | 84 | 1014.4 |
| 20260904025519 | 16 | 94 | 4.8 | 11.3 | 0.13 | 0.25 | 0.25 | 84 | 1014.3 |
| 20260904025016 | 16 | 120 | 1.6 | 14.5 | 0.18 | 0.25 | 0.25 | 83 | 1014.4 |
| 20260904024534 | 15 | 121 | 4.8 | 14.5 | 0.18 | 0.25 | 0.25 | 83 | 1014.4 |
| 20260904024021 | 15 | 79 | 3.2 | 11.3 | 0.20 | 0.25 | 0.25 | 82 | 1014.5 |
| 20260904023516 | 15 | 78 | 3.2 | 11.3 | 0.23 | 0.25 | 0.25 | 81 | 1014.8 |
| 20260904023039 | 15 | 80 | 3.2 | 11.3 | 0.23 | 0.25 | 0.25 | 81 | 1015.2 |
| 20260904022516 | 15 | 86 | 1.6 | 6.4 | 0.18 | 0.18 | 0.18 | 80 | 1015.7 |
| 20260904022019 | 15 | 86 | 0.0 | 4.8 | 0.13 | 0.15 | 0.13 | 79 | 1016.7 |
| 20260904021539 | 15 | 86 | 1.6 | 4.8 | 0.13 | 0.15 | 0.13 | 79 | 1016.2 |
| 20260904021022 | 15 | 86 | 0.0 | 3.2 | 0.13 | 0.15 | 0.13 | 78 | 1016.6 |
| 20260904020520 | 15 | 0 | 0.0 | 4.8 | 0.13 | 0.15 | 0.13 | 78 | 1017.3 |
| 20260904020032 | 15 | 86 | 0.0 | 9.7 | 0.13 | 0.15 | 0.13 | 78 | 1016.8 |
| 20260904015515 | 15 | 86 | 3.2 | 12.9 | 0.10 | 0.13 | 0.10 | 77 | 1016.2 |
| 20260904015020 | 15 | 49 | 4.8 | 14.5 | 0.08 | 0.08 | 0.08 | 76 | 1016.1 |
| 20260904014545 | 15 | 28 | 4.8 | 14.5 | 0.05 | 0.08 | 0.05 | 75 | 1016.4 |
| 20260904014018 | 15 | 57 | 3.2 | 8.0 | 0.03 | 0.05 | 0.03 | 75 | 1016.7 |
| 20260904013515 | 15 | 0 | 0.0 | 8.0 | 0.00 | 0.03 | 0.00 | 75 | 1017.1 |
| 20260904013039 | 15 | 59 | 1.6 | 6.4 | 0.00 | 0.00 | 0.00 | 74 | 1017.3 |
| 20260904012516 | 15 | 58 | 1.6 | 14.5 | 0.00 | 0.00 | 0.00 | 74 | 1017.1 |
| 20260904012019 | 15 | 62 | 3.2 | 14.5 | 0.00 | 0.00 | 0.00 | 74 | 1017.2 |
| 20260904011534 | 16 | 45 | 4.8 | 12.9 | 0.00 | 0.00 | 0.00 | 74 | 1017.2 |
| 20260904011015 | 16 | 48 | 4.8 | 14.5 | 0.00 | 0.00 | 0.00 | 73 | 1017.0 |
| 20260904010516 | 16 | 42 | 6.4 | 16.1 | 0.00 | 0.00 | 0.00 | 73 | 1017.1 |
| 20260904010034 | 16 | 355 | 4.8 | 16.1 | 0.00 | 0.00 | 0.00 | 72 | 1017.3 |
| 20260904005518 | 16 | 34 | 4.8 | 16.1 | 0.00 | 0.00 | 0.00 | 71 | 1017.7 |
| 20260904005019 | 16 | 19 | 6.4 | 17.7 | 0.00 | 0.00 | 0.00 | 70 | 1017.6 |
| 20260904004537 | 16 | 22 | 4.8 | 17.7 | 0.00 | 0.00 | 0.00 | 70 | 1017.7 |
| 20260904004016 | 16 | 318 | 6.4 | 17.7 | 0.00 | 0.00 | 0.00 | 69 | 1018.2 |
| 20260904003519 | 16 | 65 | 8.0 | 16.1 | 0.00 | 0.00 | 0.00 | 69 | 1018.2 |
| 20260904003034 | 16 | 43 | 4.8 | 16.1 | 0.00 | 0.00 | 0.00 | 70 | 1018.3 |
| 20260904002518 | 17 | 22 | 6.4 | 16.1 | 0.00 | 0.00 | 0.00 | 70 | 1018.4 |
| 20260904002016 | 17 | 51 | 4.8 | 16.1 | 0.00 | 0.00 | 0.00 | 70 | 1018.3 |
| 20260904001533 | 17 | 24 | 6.4 | 16.1 | 0.00 | 0.00 | 0.00 | 69 | 1018.1 |
| 20260904001015 | 17 | 59 | 4.8 | 14.5 | 0.00 | 0.00 | 0.00 | 70 | 1018.2 |
| 20260904000516 | 17 | 355 | 1.6 | 12.9 | 0.00 | 0.00 | 0.00 | 70 | 1017.8 |
| 20260904000036 | 17 | 348 | 3.2 | 11.3 | 0.00 | 0.00 | 0.00 | 70 | 1017.9 |
| 20260903235518 | 17 | 360 | 3.2 | 12.9 | 0.00 | 0.00 | 0.00 | 71 | 1017.7 |
| 20260903235019 | 16 | 355 | 4.8 | 12.9 | 0.00 | 0.00 | 0.00 | 71 | 1017.6 |
| 20260903234535 | 16 | 355 | 3.2 | 12.9 | 0.00 | 0.00 | 0.00 | 71 | 1017.7 |
| 20260903234019 | 16 | 15 | 3.2 | 12.9 | 0.00 | 0.00 | 0.00 | 72 | 1017.7 |
| 20260903233521 | 16 | 20 | 4.8 | 16.1 | 0.00 | 0.00 | 0.00 | 72 | 1017.7 |
| 20260903233033 | 16 | 40 | 4.8 | 16.1 | 0.00 | 0.00 | 0.00 | 72 | 1017.7 |
| 20260903232518 | 16 | 81 | 4.8 | 16.1 | 0.00 | 0.00 | 0.00 | 73 | 1017.7 |
| 20260903232018 | 16 | 46 | 3.2 | 12.9 | 0.00 | 0.00 | 0.00 | 73 | 1017.8 |
| 20260903231534 | 15 | 26 | 3.2 | 12.9 | 0.00 | 0.00 | 0.00 | 73 | 1018.1 |
| 20260903231017 | 15 | 15 | 1.6 | 12.9 | 0.00 | 0.00 | 0.00 | 74 | 1018.2 |
| 20260903230519 | 15 | 78 | 4.8 | 12.9 | 0.00 | 0.00 | 0.00 | 74 | 1018.1 |
| 20260903230035 | 15 | 355 | 4.8 | 11.3 | 0.00 | 0.00 | 0.00 | 74 | 1018.0 |
| 20260903225523 | 15 | 53 | 3.2 | 12.9 | 0.00 | 0.00 | 0.00 | 74 | 1018.1 |
| 20260903225023 | 15 | 37 | 4.8 | 12.9 | 0.00 | 0.00 | 0.00 | 75 | 1018.0 |
| 20260903224534 | 15 | 9 | 3.2 | 11.3 | 0.00 | 0.00 | 0.00 | 76 | 1017.9 |
| 20260903224018 | 15 | 57 | 1.6 | 12.9 | 0.00 | 0.00 | 0.00 | 76 | 1017.9 |
| 20260903223518 | 15 | 70 | 4.8 | 12.9 | 0.00 | 0.00 | 0.00 | 76 | 1018.0 |
| 20260903223034 | 14 | 90 | 1.6 | 11.3 | 0.00 | 0.00 | 0.00 | 76 | 1018.1 |
| 20260903222523 | 14 | 0 | 1.6 | 11.3 | 0.00 | 0.00 | 0.00 | 76 | 1018.0 |
| 20260903222020 | 14 | 18 | 3.2 | 11.3 | 0.00 | 0.00 | 0.00 | 76 | 1018.1 |
| 20260903221537 | 14 | 19 | 1.6 | 8.0 | 0.00 | 0.00 | 0.00 | 77 | 1018.2 |
| 20260903221019 | 14 | 22 | 3.2 | 8.0 | 0.00 | 0.00 | 0.00 | 77 | 1018.3 |
| 20260903220520 | 14 | 26 | 3.2 | 11.3 | 0.00 | 0.00 | 0.00 | 77 | 1018.2 |
| 20260903220042 | 14 | 45 | 3.2 | 11.3 | 0.00 | 0.00 | 0.00 | 78 | 1018.0 |
| 20260903215522 | 14 | 27 | 3.2 | 8.0 | 0.00 | 0.00 | 0.00 | 78 | 1017.8 |
| 20260903215015 | 13 | 360 | 1.6 | 9.7 | 0.00 | 0.00 | 0.00 | 78 | 1017.8 |
| 20260903214536 | 13 | 360 | 3.2 | 9.7 | 0.00 | 0.00 | 0.00 | 78 | 1018.0 |
| 20260903214023 | 13 | 360 | 3.2 | 8.0 | 0.00 | 0.00 | 0.00 | 78 | 1018.0 |
| 20260903213520 | 13 | 360 | 0.0 | 6.4 | 0.00 | 0.00 | 0.00 | 78 | 1018.0 |
| 20260903213036 | 13 | 360 | 1.6 | 17.7 | 0.00 | 0.00 | 0.00 | 78 | 1017.9 |
| 20260903212520 | 13 | 0 | 3.2 | 17.7 | 0.00 | 0.00 | 0.00 | 78 | 1017.6 |
| 20260903212019 | 13 | 360 | 1.6 | 12.9 | 0.00 | 0.00 | 0.00 | 78 | 1017.4 |
| 20260903211535 | 13 | 360 | 3.2 | 12.9 | 0.00 | 0.00 | 0.00 | 78 | 1017.4 |
| 20260903211018 | 13 | 96 | 3.2 | 6.4 | 0.00 | 0.00 | 0.00 | 78 | 1017.3 |
| 20260903210519 | 13 | 0 | 0.0 | 4.8 | 0.00 | 0.00 | 0.00 | 78 | 1017.6 |
| 20260903210034 | 13 | 100 | 0.0 | 8.0 | 0.00 | 0.00 | 0.00 | 79 | 1017.5 |
| 20260903205516 | 13 | 360 | 1.6 | 8.0 | 0.00 | 0.00 | 0.00 | 79 | 1017.6 |
| 20260903205018 | 13 | 360 | 1.6 | 9.7 | 0.00 | 0.00 | 0.00 | 79 | 1017.9 |
| 20260903204534 | 13 | 360 | 1.6 | 9.7 | 0.00 | 0.00 | 0.00 | 79 | 1017.8 |
| 20260903204018 | 13 | 0 | 1.6 | 12.9 | 0.00 | 0.00 | 0.00 | 79 | 1017.8 |
| 20260903203517 | 13 | 0 | 1.6 | 12.9 | 0.00 | 0.00 | 0.00 | 80 | 1017.9 |
| 20260903203033 | 13 | 118 | 3.2 | 12.9 | 0.00 | 0.00 | 0.00 | 80 | 1018.0 |
| 20260903202520 | 13 | 96 | 3.2 | 11.3 | 0.00 | 0.00 | 0.00 | 80 | 1017.8 |
| 20260903202019 | 13 | 21 | 1.6 | 11.3 | 0.00 | 0.00 | 0.00 | 80 | 1018.1 |
| 20260903201535 | 13 | 27 | 0.0 | 8.0 | 0.00 | 0.00 | 0.00 | 81 | 1018.3 |
| 20260903201023 | 13 | 25 | 1.6 | 8.0 | 0.00 | 0.00 | 0.00 | 81 | 1018.3 |
| 20260903200518 | 13 | 13 | 1.6 | 12.9 | 0.00 | 0.00 | 0.00 | 81 | 1018.4 |
| 20260903200034 | 13 | 13 | 3.2 | 12.9 | 0.00 | 0.00 | 0.00 | 81 | 1018.3 |
| 20260903195516 | 12 | 17 | 3.2 | 8.0 | 0.00 | 0.00 | 0.00 | 81 | 1018.3 |
| 20260903195020 | 12 | 0 | 1.6 | 6.4 | 0.00 | 0.00 | 0.00 | 81 | 1018.5 |
| 20260903194534 | 12 | 17 | 3.2 | 8.0 | 0.00 | 0.00 | 0.00 | 81 | 1018.5 |
| 20260903194017 | 12 | 17 | 1.6 | 12.9 | 0.00 | 0.00 | 0.00 | 82 | 1018.5 |
| 20260903193518 | 12 | 16 | 3.2 | 12.9 | 0.00 | 0.00 | 0.00 | 82 | 1018.4 |
| 20260903193035 | 12 | 11 | 3.2 | 12.9 | 0.00 | 0.00 | 0.00 | 82 | 1018.6 |
| 20260903192519 | 12 | 18 | 3.2 | 8.0 | 0.00 | 0.00 | 0.00 | 82 | 1018.7 |
| 20260903192019 | 12 | 18 | 3.2 | 8.0 | 0.00 | 0.00 | 0.00 | 82 | 1018.8 |
| 20260903191532 | 12 | 26 | 1.6 | 12.9 | 0.00 | 0.00 | 0.00 | 82 | 1018.9 |
| 20260903191019 | 12 | 0 | 3.2 | 12.9 | 0.00 | 0.00 | 0.00 | 82 | 1018.9 |
| 20260903190517 | 12 | 34 | 3.2 | 9.7 | 0.00 | 0.00 | 0.00 | 82 | 1018.7 |
| 20260903190037 | 12 | 43 | 1.6 | 9.7 | 0.00 | 0.00 | 0.00 | 82 | 1018.8 |
| 20260903185515 | 12 | 49 | 1.6 | 9.7 | 0.00 | 0.00 | 0.00 | 82 | 1018.6 |
| 20260903185018 | 12 | 59 | 3.2 | 11.3 | 0.00 | 0.00 | 0.00 | 81 | 1018.3 |
| 20260903184537 | 12 | 58 | 3.2 | 11.3 | 0.00 | 0.00 | 0.00 | 81 | 1018.1 |
| 20260903184016 | 12 | 83 | 3.2 | 9.7 | 0.00 | 0.00 | 0.00 | 81 | 1018.2 |
| 20260903183520 | 12 | 65 | 0.0 | 8.0 | 0.00 | 0.00 | 0.00 | 80 | 1018.6 |
| 20260903183035 | 12 | 66 | 0.0 | 12.9 | 0.00 | 0.00 | 0.00 | 80 | 1018.7 |
| 20260903182522 | 12 | 74 | 1.6 | 12.9 | 0.00 | 0.00 | 0.00 | 80 | 1018.2 |
| 20260903182021 | 12 | 257 | 1.6 | 9.7 | 0.00 | 0.00 | 0.00 | 80 | 1018.2 |
| 20260903181536 | 12 | 258 | 0.0 | 4.8 | 0.00 | 0.00 | 0.00 | 79 | 1018.5 |
| 20260903181020 | 12 | 0 | 0.0 | 3.2 | 0.00 | 0.00 | 0.00 | 79 | 1018.9 |
| 20260903180519 | 12 | 0 | 0.0 | 0.0 | 0.00 | 0.00 | 0.00 | 79 | 1019.2 |
| 20260903180045 | 12 | 0 | 0.0 | 0.0 | 0.00 | 0.00 | 0.00 | 78 | 1019.3 |
| 20260903175518 | 12 | 0 | 0.0 | 0.0 | 0.00 | 0.00 | 0.00 | 78 | 1019.4 |
| 20260903175019 | 12 | 0 | 0.0 | 0.0 | 0.00 | 0.00 | 0.00 | 78 | 1019.4 |
| 20260903174536 | 12 | 0 | 0.0 | 0.0 | 0.00 | 0.00 | 0.00 | 78 | 1019.3 |
| 20260903174018 | 12 | 0 | 0.0 | 0.0 | 0.00 | 0.00 | 0.00 | 78 | 1019.3 |
| 20260903173520 | 13 | 0 | 0.0 | 0.0 | 0.00 | 0.00 | 0.00 | 78 | 1019.3 |
| 20260903173034 | 13 | 0 | 0.0 | 0.0 | 0.00 | 0.00 | 0.00 | 78 | 1019.4 |
| 20260903172518 | 13 | 0 | 0.0 | 3.2 | 0.00 | 0.00 | 0.00 | 78 | 1019.7 |
| 20260903172017 | 13 | 0 | 0.0 | 6.4 | 0.00 | 0.00 | 0.00 | 77 | 1019.8 |
| 20260903171543 | 13 | 0 | 1.6 | 6.4 | 0.00 | 0.00 | 0.00 | 77 | 1020.0 |
| 20260903171019 | 13 | 256 | 1.6 | 6.4 | 0.00 | 0.00 | 0.00 | 77 | 1020.2 |
| 20260903170516 | 13 | 244 | 0.0 | 6.4 | 0.00 | 0.00 | 0.00 | 77 | 1020.2 |
| 20260903170043 | 13 | 0 | 0.0 | 3.2 | 0.00 | 0.00 | 0.00 | 76 | 1020.1 |
| 20260903165522 | 13 | 0 | 0.0 | 3.2 | 0.00 | 0.00 | 0.00 | 76 | 1020.1 |
| 20260903165018 | 13 | 0 | 0.0 | 1.6 | 0.00 | 0.00 | 0.00 | 76 | 1020.1 |
| 20260903164542 | 13 | 0 | 0.0 | 1.6 | 0.00 | 0.00 | 0.00 | 76 | 1020.1 |
| 20260903164019 | 13 | 0 | 0.0 | 1.6 | 0.00 | 0.00 | 0.00 | 75 | 1020.1 |
| 20260903163517 | 13 | 0 | 0.0 | 1.6 | 0.00 | 0.00 | 0.00 | 75 | 1020.3 |
| 20260903163036 | 13 | 0 | 0.0 | 0.0 | 0.00 | 0.00 | 0.00 | 75 | 1020.4 |
| 20260903162515 | 13 | 0 | 0.0 | 0.0 | 0.00 | 0.00 | 0.00 | 75 | 1020.5 |
| 20260903162018 | 13 | 0 | 0.0 | 0.0 | 0.00 | 0.00 | 0.00 | 75 | 1020.6 |
| 20260903161533 | 13 | 0 | 0.0 | 0.0 | 0.00 | 0.00 | 0.00 | 74 | 1020.5 |
| 20260903161019 | 13 | 0 | 0.0 | 0.0 | 0.00 | 0.00 | 0.00 | 74 | 1020.4 |
| 20260903160522 | 13 | 0 | 0.0 | 0.0 | 0.00 | 0.00 | 0.00 | 74 | 1020.3 |
| 20260903160038 | 13 | 0 | 0.0 | 3.2 | 0.00 | 0.00 | 0.00 | 74 | 1020.4 |
| 20260903155518 | 13 | 0 | 0.0 | 3.2 | 0.00 | 0.00 | 0.00 | 74 | 1020.2 |
| 20260903155020 | 13 | 0 | 0.0 | 4.8 | 0.00 | 0.00 | 0.00 | 74 | 1020.3 |
| 20260903154538 | 13 | 0 | 0.0 | 4.8 | 0.00 | 0.00 | 0.00 | 74 | 1020.3 |
| 20260903154020 | 13 | 0 | 0.0 | 0.0 | 0.00 | 0.00 | 0.00 | 74 | 1020.5 |
| 20260903153520 | 13 | 0 | 0.0 | 0.0 | 0.00 | 0.00 | 0.00 | 74 | 1020.5 |
| 20260903153032 | 13 | 0 | 0.0 | 0.0 | 0.00 | 0.00 | 0.00 | 74 | 1020.6 |
| 20260903152516 | 13 | 0 | 0.0 | 3.2 | 0.00 | 0.00 | 0.00 | 74 | 1020.7 |
| 20260903152016 | 13 | 0 | 0.0 | 3.2 | 0.00 | 0.00 | 0.00 | 74 | 1020.8 |
| 20260903151537 | 13 | 0 | 0.0 | 3.2 | 0.00 | 0.00 | 0.00 | 74 | 1020.9 |
| 20260903151018 | 13 | 0 | 0.0 | 1.6 | 0.00 | 0.00 | 0.00 | 73 | 1020.9 |
| 20260903150523 | 13 | 0 | 0.0 | 1.6 | 0.00 | 0.00 | 0.00 | 73 | 1020.9 |
| 20260903150057 | 13 | 0 | 0.0 | 1.6 | 0.00 | 0.00 | 0.00 | 73 | 1021.0 |
| 20260903145517 | 13 | 0 | 0.0 | 3.2 | 0.00 | 0.00 | 0.00 | 73 | 1021.1 |
| 20260903145017 | 13 | 0 | 0.0 | 3.2 | 0.00 | 0.00 | 0.00 | 73 | 1021.1 |
| 20260903144537 | 13 | 0 | 0.0 | 3.2 | 0.00 | 0.00 | 0.00 | 73 | 1021.2 |
| 20260903144022 | 13 | 0 | 0.0 | 1.6 | 0.00 | 0.00 | 0.00 | 73 | 1021.3 |
| 20260903143519 | 13 | 0 | 0.0 | 1.6 | 0.00 | 0.00 | 0.00 | 73 | 1021.4 |
| 20260903143035 | 13 | 0 | 0.0 | 0.0 | 0.00 | 0.00 | 0.00 | 73 | 1021.4 |
| 20260903142518 | 13 | 0 | 0.0 | 1.6 | 0.00 | 0.00 | 0.00 | 73 | 1021.5 |
| 20260903142022 | 13 | 0 | 0.0 | 3.2 | 0.00 | 0.00 | 0.00 | 73 | 1021.4 |
| 20260903141536 | 13 | 0 | 0.0 | 3.2 | 0.00 | 0.00 | 0.00 | 73 | 1021.5 |
| 20260903141018 | 13 | 0 | 0.0 | 3.2 | 0.00 | 0.00 | 0.00 | 72 | 1021.6 |
| 20260903140518 | 13 | 0 | 0.0 | 0.0 | 0.00 | 0.00 | 0.00 | 72 | 1021.6 |
| 20260903140039 | 13 | 0 | 0.0 | 0.0 | 0.00 | 0.00 | 0.00 | 72 | 1021.6 |
| 20260903135516 | 13 | 0 | 0.0 | 0.0 | 0.00 | 0.00 | 0.00 | 72 | 1021.6 |
| 20260903135016 | 13 | 0 | 0.0 | 0.0 | 0.00 | 0.00 | 0.00 | 72 | 1021.7 |
| 20260903134531 | 13 | 0 | 0.0 | 0.0 | 0.00 | 0.00 | 0.00 | 72 | 1021.9 |
| 20260903134021 | 13 | 0 | 0.0 | 0.0 | 0.00 | 0.00 | 0.00 | 72 | 1021.9 |
| 20260903133515 | 13 | 0 | 0.0 | 0.0 | 0.00 | 0.00 | 0.00 | 72 | 1021.8 |
| 20260903133038 | 13 | 0 | 0.0 | 0.0 | 0.00 | 0.00 | 0.00 | 72 | 1022.0 |
| 20260903132522 | 13 | 0 | 0.0 | 0.0 | 0.00 | 0.00 | 0.00 | 72 | 1021.9 |
| 20260903132020 | 13 | 0 | 0.0 | 0.0 | 0.00 | 0.00 | 0.00 | 72 | 1022.1 |
| 20260903131536 | 13 | 0 | 0.0 | 0.0 | 0.00 | 0.00 | 0.00 | 72 | 1022.0 |
| 20260903131019 | 13 | 0 | 0.0 | 0.0 | 0.00 | 0.00 | 0.00 | 72 | 1022.1 |
| 20260903130519 | 13 | 0 | 0.0 | 0.0 | 0.00 | 0.00 | 0.00 | 72 | 1022.2 |
| 20260903130035 | 13 | 0 | 0.0 | 0.0 | 0.00 | 0.00 | 0.00 | 72 | 1022.2 |
| 20260903125518 | 13 | 0 | 0.0 | 0.0 | 0.00 | 0.00 | 0.00 | 72 | 1022.3 |
| 20260903125016 | 13 | 0 | 0.0 | 0.0 | 0.00 | 0.00 | 0.00 | 72 | 1022.3 |
| 20260903124543 | 13 | 0 | 0.0 | 0.0 | 0.00 | 0.00 | 0.00 | 72 | 1022.4 |
| 20260903124019 | 13 | 0 | 0.0 | 0.0 | 0.00 | 0.00 | 0.00 | 72 | 1022.3 |
| 20260903123522 | 13 | 0 | 0.0 | 0.0 | 0.00 | 0.00 | 0.00 | 72 | 1022.4 |
| 20260903123036 | 13 | 0 | 0.0 | 0.0 | 0.00 | 0.00 | 0.00 | 72 | 1022.5 |
| 20260903122516 | 13 | 0 | 0.0 | 0.0 | 0.00 | 0.00 | 0.00 | 72 | 1022.6 |